FW4174 Weather Reports


Display with metric or nautical units.
time (UTC)temp
F
wind
direction
speed
MPH
gust
MPH
rain 1hr
in
rain 24hr
in
rain mn
in
humidity
%
barometer
mb
20260510215046 63 290 4.0 15.0 0.00 0.00 0.00 28 1019.7
20260510214556 64 281 3.0 15.0 0.00 0.00 0.00 30 1019.7
20260510214047 64 315 7.0 15.0 0.00 0.00 0.00 29 1019.6
20260510213546 64 288 4.0 10.0 0.00 0.00 0.00 30 1019.7
20260510213058 65 327 4.0 14.0 0.00 0.00 0.00 29 1019.8
20260510212548 64 339 4.0 14.0 0.00 0.00 0.00 31 1019.8
20260510212047 65 333 5.0 13.0 0.00 0.00 0.00 28 1019.8
20260510211553 65 346 4.0 13.0 0.00 0.00 0.00 30 1019.8
20260510211049 64 322 3.0 12.0 0.00 0.00 0.00 31 1019.7
20260510210545 65 300 3.0 10.0 0.00 0.00 0.00 29 1019.9
20260510210055 65 302 3.0 10.0 0.00 0.00 0.00 32 1019.8
20260510205547 64 303 4.0 12.0 0.00 0.00 0.00 29 1019.9
20260510205047 63 331 4.0 12.0 0.00 0.00 0.00 29 1019.8
20260510204555 66 332 6.0 12.0 0.00 0.00 0.00 29 1019.9
20260510204047 65 331 4.0 14.0 0.00 0.00 0.00 32 1019.8
20260510203548 64 327 6.0 14.0 0.00 0.00 0.00 31 1019.8
20260510203051 64 329 3.0 15.0 0.00 0.00 0.00 31 1019.8
20260510202547 65 288 7.0 15.0 0.00 0.00 0.00 31 1019.8
20260510202045 64 315 5.0 15.0 0.00 0.00 0.00 31 1019.8
20260510201604 64 334 6.0 15.0 0.00 0.00 0.00 32 1019.8
20260510201044 65 317 5.0 17.0 0.00 0.00 0.00 32 1019.7
20260510200546 64 352 3.0 18.0 0.00 0.00 0.00 31 1019.8
20260510200053 64 331 9.0 18.0 0.00 0.00 0.00 33 1019.7
20260510195548 65 316 7.0 16.0 0.00 0.00 0.00 31 1019.7
20260510195048 65 312 7.0 14.0 0.00 0.00 0.00 32 1019.8
20260510194556 66 360 4.0 10.0 0.00 0.00 0.00 32 1019.8
20260510194048 65 293 2.0 11.0 0.00 0.00 0.00 33 1019.6
20260510193550 65 326 4.0 11.0 0.00 0.00 0.00 31 1019.7
20260510193103 64 236 4.0 11.0 0.00 0.00 0.00 32 1019.7
20260510192548 64 338 2.0 15.0 0.00 0.00 0.00 32 1019.7
20260510192048 64 349 6.0 15.0 0.00 0.00 0.00 32 1019.7
20260510191559 64 343 7.0 15.0 0.00 0.00 0.00 33 1019.6
20260510191047 64 11 8.0 15.0 0.00 0.00 0.00 32 1019.6
20260510190545 64 342 5.0 15.0 0.00 0.00 0.00 33 1019.6
20260510190054 63 284 5.0 15.0 0.00 0.00 0.00 33 1019.7
20260510185545 64 19 8.0 15.0 0.00 0.00 0.00 30 1019.6
20260510185049 64 22 3.0 19.0 0.00 0.00 0.00 31 1019.6
20260510184552 64 300 7.0 19.0 0.00 0.00 0.00 34 1019.5
20260510184044 64 327 7.0 19.0 0.00 0.00 0.00 32 1019.6
20260510183547 64 286 10.0 19.0 0.00 0.00 0.00 32 1019.6
20260510183050 64 322 4.0 10.0 0.00 0.00 0.00 34 1019.6
20260510182544 64 300 2.0 10.0 0.00 0.00 0.00 35 1019.6
20260510182045 64 315 2.0 10.0 0.00 0.00 0.00 32 1019.6
20260510181552 64 268 3.0 15.0 0.00 0.00 0.00 34 1019.6
20260510181048 64 342 5.0 15.0 0.00 0.00 0.00 32 1019.6
20260510180548 64 337 1.0 12.0 0.00 0.00 0.00 34 1019.6
20260510180107 64 315 5.0 10.0 0.00 0.00 0.00 33 1019.6
20260510175547 64 317 4.0 11.0 0.00 0.00 0.00 31 1019.6
20260510175047 64 265 5.0 12.0 0.00 0.00 0.00 32 1019.5
20260510174550 64 340 3.0 12.0 0.00 0.00 0.00 32 1019.6
20260510174047 64 351 4.0 14.0 0.00 0.00 0.00 32 1019.6
20260510173547 63 5 5.0 14.0 0.00 0.00 0.00 30 1019.5
20260510173049 64 15 4.0 13.0 0.00 0.00 0.00 32 1019.5
20260510172547 63 332 4.0 13.0 0.00 0.00 0.00 34 1019.5
20260510172047 64 302 5.0 10.0 0.00 0.00 0.00 33 1019.4
20260510171552 64 24 4.0 12.0 0.00 0.00 0.00 35 1019.5
20260510171048 63 295 4.0 25.0 0.00 0.00 0.00 33 1019.5
20260510170544 64 352 5.0 25.0 0.00 0.00 0.00 35 1019.4
20260510170052 63 15 3.0 11.0 0.00 0.00 0.00 35 1019.5
20260510165544 63 298 1.0 13.0 0.00 0.00 0.00 34 1019.5
20260510165048 62 192 2.0 13.0 0.00 0.00 0.00 33 1019.6
20260510164556 62 328 7.0 13.0 0.00 0.00 0.00 34 1019.6
20260510164047 62 42 2.0 9.0 0.00 0.00 0.00 36 1019.6
20260510163547 63 264 3.0 11.0 0.00 0.00 0.00 33 1019.6
20260510163053 62 300 6.0 11.0 0.00 0.00 0.00 35 1019.5
20260510162548 62 319 5.0 11.0 0.00 0.00 0.00 36 1019.6
20260510162047 62 346 2.0 9.0 0.00 0.00 0.00 35 1019.5
20260510161551 63 282 4.0 11.0 0.00 0.00 0.00 36 1019.6
20260510161044 62 316 2.0 12.0 0.00 0.00 0.00 37 1019.6
20260510160545 61 308 6.0 12.0 0.00 0.00 0.00 36 1019.5
20260510160056 61 329 2.0 10.0 0.00 0.00 0.00 36 1019.5
20260510155545 61 5 4.0 10.0 0.00 0.00 0.00 35 1019.6
20260510155043 61 318 2.0 12.0 0.00 0.00 0.00 37 1019.5
20260510154559 61 269 5.0 12.0 0.00 0.00 0.00 37 1019.6
20260510154044 61 328 3.0 9.0 0.00 0.00 0.00 37 1019.6
20260510153544 60 289 3.0 9.0 0.00 0.00 0.00 36 1019.6
20260510153058 60 319 4.0 9.0 0.00 0.00 0.00 37 1019.5
20260510152544 60 293 4.0 9.0 0.00 0.00 0.00 37 1019.5
20260510152043 60 349 4.0 9.0 0.00 0.00 0.00 38 1019.5
20260510151559 59 313 4.0 12.0 0.00 0.00 0.00 38 1019.5
20260510151043 60 37 2.0 12.0 0.00 0.00 0.00 37 1019.5
20260510150543 60 317 3.0 9.0 0.00 0.00 0.00 37 1019.5
20260510145544 59 291 2.0 7.0 0.00 0.00 0.00 37 1019.4
20260510145043 59 328 2.0 7.0 0.00 0.00 0.00 40 1019.4
20260510144605 59 327 3.0 7.0 0.00 0.00 0.00 39 1019.4
20260510144044 58 287 2.0 7.0 0.00 0.00 0.00 42 1019.4
20260510143544 57 5 2.0 9.0 0.00 0.00 0.00 42 1019.5
20260510143102 56 300 2.0 9.0 0.00 0.00 0.00 44 1019.4
20260510142544 56 337 3.0 9.0 0.00 0.00 0.00 45 1019.6
20260510142043 55 303 3.0 10.0 0.00 0.00 0.00 46 1019.5
20260510141555 54 338 4.0 14.0 0.00 0.00 0.00 46 1019.5
20260510141044 53 322 4.0 14.0 0.00 0.00 0.00 45 1019.6
20260510140544 54 325 8.0 14.0 0.00 0.00 0.00 43 1019.4
20260510140053 55 312 9.0 14.0 0.00 0.00 0.00 42 1019.4
20260510135543 57 350 7.0 13.0 0.00 0.00 0.00 42 1019.4
20260510135043 58 336 2.0 8.0 0.00 0.00 0.00 39 1019.2
20260510134554 58 349 3.0 8.0 0.00 0.00 0.00 42 1019.0
20260510134043 58 278 1.0 9.0 0.00 0.00 0.00 40 1019.0
20260510133545 58 292 1.0 10.0 0.00 0.00 0.00 39 1018.9
20260510133057 57 254 2.0 10.0 0.00 0.00 0.00 40 1018.8
20260510132543 56 263 2.0 13.0 0.00 0.00 0.00 41 1018.8
20260510132042 55 244 3.0 14.0 0.00 0.00 0.00 42 1018.7
20260510131555 54 231 8.0 14.0 0.00 0.00 0.00 43 1018.7
20260510131100 54 283 5.0 10.0 0.00 0.00 0.00 44 1018.7
20260510130546 53 244 5.0 12.0 0.00 0.00 0.00 47 1018.7
20260510130059 51 246 6.0 12.0 0.00 0.00 0.00 48 1018.6
20260510125548 50 243 5.0 11.0 0.00 0.00 0.00 50 1018.6
20260510125047 49 238 7.0 11.0 0.00 0.00 0.00 51 1018.6
20260510124600 48 253 4.0 8.0 0.00 0.00 0.00 53 1018.5
20260510124047 47 247 5.0 8.0 0.00 0.00 0.00 55 1018.5
20260510123545 46 234 4.0 8.0 0.00 0.00 0.00 56 1018.4
20260510123057 45 232 3.0 8.0 0.00 0.00 0.00 58 1018.4
20260510122546 44 236 4.0 8.0 0.00 0.00 0.00 59 1018.4
20260510122048 43 229 4.0 8.0 0.00 0.00 0.00 60 1018.4
20260510121550 42 242 4.0 5.0 0.00 0.00 0.00 62 1018.3
20260510121047 41 228 3.0 7.0 0.00 0.00 0.00 62 1018.3
20260510120548 40 234 3.0 7.0 0.00 0.00 0.00 62 1018.3
20260510115548 40 247 3.0 6.0 0.00 0.00 0.00 62 1018.3
20260510115047 40 242 4.0 7.0 0.00 0.00 0.00 62 1018.4
20260510114551 39 234 4.0 7.0 0.00 0.00 0.00 62 1018.3
20260510114047 39 232 4.0 7.0 0.00 0.00 0.00 63 1018.3
20260510113546 39 241 5.0 7.0 0.00 0.00 0.00 63 1018.3
20260510113059 39 250 5.0 8.0 0.00 0.00 0.00 63 1018.3
20260510112546 39 241 5.0 8.0 0.00 0.00 0.00 63 1018.2
20260510112046 38 232 6.0 8.0 0.00 0.00 0.00 63 1018.2
20260510111548 38 227 4.0 7.0 0.00 0.00 0.00 64 1018.1
20260510111049 38 249 4.0 7.0 0.00 0.00 0.00 65 1018.1
20260510110548 37 237 2.0 5.0 0.00 0.00 0.00 65 1018.1
20260510110051 37 227 2.0 5.0 0.00 0.00 0.00 65 1018.2
20260510105548 37 240 2.0 4.0 0.00 0.00 0.00 66 1018.1
20260510105045 37 226 0.0 4.0 0.00 0.00 0.00 65 1018.1
20260510104554 37 0 1.0 5.0 0.00 0.00 0.00 64 1018.1
20260510104052 38 225 3.0 5.0 0.00 0.00 0.00 64 1018.1
20260510103548 37 242 3.0 5.0 0.00 0.00 0.00 65 1018.0
20260510103053 36 237 2.0 5.0 0.00 0.00 0.00 66 1018.1
20260510102548 36 236 3.0 5.0 0.00 0.00 0.00 67 1018.1
20260510102049 35 250 2.0 4.0 0.00 0.00 0.00 67 1018.0
20260510101557 35 249 2.0 4.0 0.00 0.00 0.00 66 1018.0
20260510101048 36 249 1.0 3.0 0.00 0.00 0.00 67 1018.0
20260510100545 36 247 0.0 4.0 0.00 0.00 0.00 65 1018.1
20260510100055 37 233 1.0 4.0 0.00 0.00 0.00 63 1018.1
20260510095545 38 210 1.0 3.0 0.00 0.00 0.00 63 1018.1
20260510095046 39 344 0.0 2.0 0.00 0.00 0.00 64 1018.0
20260510094551 39 0 0.0 2.0 0.00 0.00 0.00 64 1017.9
20260510094045 39 0 0.0 2.0 0.00 0.00 0.00 64 1017.9
20260510093545 39 0 1.0 2.0 0.00 0.00 0.00 62 1017.9
20260510093054 39 344 1.0 2.0 0.00 0.00 0.00 63 1017.9
20260510092545 38 344 0.0 2.0 0.00 0.00 0.00 64 1017.8
20260510092045 37 0 0.0 1.0 0.00 0.00 0.00 64 1017.8
20260510091554 38 0 0.0 0.0 0.00 0.00 0.00 64 1017.7
20260510091048 38 0 0.0 1.0 0.00 0.00 0.00 64 1017.6
20260510090547 38 0 0.0 2.0 0.00 0.00 0.00 64 1017.6
20260510090052 37 0 0.0 3.0 0.00 0.00 0.00 64 1017.4
20260510085549 37 344 1.0 3.0 0.00 0.00 0.00 63 1017.4
20260510085046 37 344 0.0 3.0 0.00 0.00 0.00 62 1017.4
20260510084557 37 0 0.0 3.0 0.00 0.00 0.00 61 1017.2
20260510084046 39 344 1.0 4.0 0.00 0.00 0.00 58 1017.3
20260510083547 40 245 0.0 8.0 0.00 0.00 0.00 58 1017.2
20260510083056 40 245 3.0 8.0 0.00 0.00 0.00 57 1017.0
20260510082545 40 245 5.0 8.0 0.00 0.00 0.00 58 1016.8
20260510082045 40 238 5.0 8.0 0.00 0.00 0.00 58 1016.7
20260510081554 40 232 4.0 8.0 0.00 0.00 0.00 59 1016.7
20260510081047 39 232 5.0 8.0 0.00 0.00 0.00 58 1016.6
20260510080545 40 246 4.0 8.0 0.00 0.00 0.00 58 1016.6
20260510075548 40 248 4.0 8.0 0.00 0.00 0.00 58 1016.6
20260510075047 40 229 5.0 7.0 0.00 0.00 0.00 57 1016.6
20260510074552 40 250 5.0 8.0 0.00 0.00 0.00 57 1016.6
20260510074048 40 248 4.0 8.0 0.00 0.00 0.00 57 1016.6
20260510073546 40 246 5.0 8.0 0.00 0.00 0.00 56 1016.6
20260510073114 41 247 4.0 6.0 0.00 0.00 0.00 55 1016.6
20260510072547 42 235 3.0 5.0 0.00 0.00 0.00 55 1016.6
20260510072046 42 241 3.0 5.0 0.00 0.00 0.00 55 1016.6
20260510071552 42 244 3.0 5.0 0.00 0.00 0.00 56 1016.7
20260510071047 41 239 3.0 5.0 0.00 0.00 0.00 57 1016.7
20260510070545 40 240 3.0 5.0 0.00 0.00 0.00 58 1016.7
20260510070057 40 236 2.0 4.0 0.00 0.00 0.00 59 1016.8
20260510065547 39 221 2.0 5.0 0.00 0.00 0.00 58 1016.8
20260510065046 40 227 3.0 5.0 0.00 0.00 0.00 56 1016.8
20260510064631 41 238 3.0 5.0 0.00 0.00 0.00 55 1016.7
20260510064048 42 234 2.0 4.0 0.00 0.00 0.00 53 1016.7
20260510063547 43 229 2.0 4.0 0.00 0.00 0.00 53 1016.5
20260510063053 43 236 1.0 2.0 0.00 0.00 0.00 53 1016.5
20260510062548 43 0 0.0 3.0 0.00 0.00 0.00 54 1016.6
20260510062048 42 236 0.0 4.0 0.00 0.00 0.00 54 1016.6
20260510061550 42 236 2.0 5.0 0.00 0.00 0.00 54 1016.6
20260510061047 42 225 3.0 5.0 0.00 0.00 0.00 54 1016.5
20260510060547 42 235 3.0 5.0 0.00 0.00 0.00 55 1016.6
20260510060057 41 233 3.0 5.0 0.00 0.00 0.00 56 1016.6
20260510055546 41 217 3.0 5.0 0.00 0.00 0.00 56 1016.6
20260510055045 40 228 3.0 5.0 0.00 0.00 0.00 55 1016.6
20260510054557 41 234 3.0 5.0 0.00 0.00 0.00 54 1016.5
20260510054046 41 238 4.0 5.0 0.00 0.00 0.00 52 1016.5
20260510053545 42 224 3.0 5.0 0.00 0.00 0.00 51 1016.5
20260510053055 43 234 2.0 3.0 0.00 0.00 0.00 50 1016.5
20260510052547 44 0 0.0 1.0 0.00 0.00 0.00 51 1016.5
20260510052045 45 306 0.0 1.0 0.00 0.00 0.00 51 1016.4
20260510051601 45 306 0.0 1.0 0.00 0.00 0.00 51 1016.3
20260510051048 45 305 0.0 2.0 0.00 0.00 0.00 51 1016.3
20260510050548 45 0 0.0 2.0 0.00 0.00 0.00 52 1016.3
20260510050055 44 0 0.0 2.0 0.00 0.00 0.00 51 1016.2
20260510045547 45 306 0.0 2.0 0.00 0.00 0.00 50 1016.2
20260510045047 45 0 0.0 1.0 0.00 0.00 0.00 49 1016.2
20260510044556 46 0 0.0 1.0 0.00 0.00 0.00 49 1016.1
20260510044047 46 0 0.0 0.0 0.00 0.00 0.00 49 1016.1
20260510043547 46 0 0.0 0.0 0.00 0.00 0.00 49 1016.0
20260510043050 46 0 0.0 0.0 0.00 0.00 0.00 48 1016.0
20260510042547 47 0 0.0 0.0 0.00 0.00 0.00 48 1016.0
20260510042045 47 0 0.0 1.0 0.00 0.00 0.00 47 1016.0
20260510041554 47 0 0.0 1.0 0.00 0.00 0.00 47 1015.9
20260510041045 47 0 0.0 1.0 0.00 0.00 0.00 47 1016.0
20260510040546 47 0 0.0 1.0 0.00 0.00 0.00 47 1015.9
20260510040050 47 0 0.0 1.0 0.00 0.00 0.00 47 1015.9
20260510035545 47 0 0.0 1.0 0.00 0.00 0.00 47 1015.8
20260510035045 47 0 0.0 1.0 0.00 0.00 0.00 48 1015.8
20260510034618 47 0 0.0 1.0 0.00 0.00 0.00 47 1015.7
20260510034043 48 0 0.0 1.0 0.00 0.00 0.00 46 1015.7
20260510033546 48 0 0.0 2.0 0.00 0.00 0.00 46 1015.6
20260510033057 48 0 0.0 2.0 0.00 0.00 0.00 46 1015.7
20260510032543 48 305 0.0 2.0 0.00 0.00 0.00 45 1015.6
20260510032043 48 305 0.0 2.0 0.00 0.00 0.00 44 1015.6
20260510031551 48 306 1.0 2.0 0.00 0.00 0.00 44 1015.6
20260510031043 48 0 0.0 1.0 0.00 0.00 0.00 44 1015.5
20260510030543 49 0 0.0 2.0 0.00 0.00 0.00 44 1015.5
20260510030054 49 0 0.0 3.0 0.00 0.00 0.00 44 1015.3
20260510025545 49 0 1.0 3.0 0.00 0.00 0.00 43 1015.3
20260510025043 49 306 1.0 3.0 0.00 0.00 0.00 42 1015.2
20260510024552 49 306 2.0 3.0 0.00 0.00 0.00 42 1015.1
20260510024044 50 309 1.0 3.0 0.00 0.00 0.00 42 1015.1
20260510023542 50 309 1.0 4.0 0.00 0.00 0.00 42 1015.0
20260510023049 50 309 2.0 4.0 0.00 0.00 0.00 42 1014.9
20260510022543 50 315 1.0 3.0 0.00 0.00 0.00 42 1014.7
20260510022043 50 308 2.0 4.0 0.00 0.00 0.00 41 1014.6
20260510021559 51 314 1.0 4.0 0.00 0.00 0.00 41 1014.4
20260510021045 51 312 1.0 4.0 0.00 0.00 0.00 41 1014.3
20260510020545 51 314 2.0 4.0 0.00 0.00 0.00 40 1014.3
20260510020052 52 313 2.0 5.0 0.00 0.00 0.00 40 1014.1
20260510015545 52 314 2.0 5.0 0.00 0.00 0.00 40 1014.0
20260510015045 52 313 2.0 5.0 0.00 0.00 0.00 39 1013.9
20260510014600 53 314 1.0 4.0 0.00 0.00 0.00 38 1013.8
20260510014044 53 309 2.0 4.0 0.00 0.00 0.00 38 1013.7
20260510013545 53 320 2.0 4.0 0.00 0.00 0.00 38 1013.5
20260510013121 54 310 2.0 5.0 0.00 0.00 0.00 37 1013.5
20260510012543 54 305 2.0 8.0 0.00 0.00 0.00 36 1013.4
20260510012043 55 328 3.0 8.0 0.00 0.00 0.00 36 1013.3
20260510011556 55 332 2.0 6.0 0.00 0.00 0.00 35 1013.3
20260510011042 55 311 2.0 7.0 0.00 0.00 0.00 35 1013.2
20260510010542 56 305 2.0 7.0 0.00 0.00 0.00 34 1013.2
20260510010054 56 275 2.0 7.0 0.00 0.00 0.00 34 1013.1
20260510005545 56 292 2.0 8.0 0.00 0.00 0.00 34 1013.1
20260510005045 56 308 2.0 9.0 0.00 0.00 0.00 33 1013.0
20260510004554 56 318 4.0 9.0 0.00 0.00 0.00 33 1013.0
20260510004045 57 319 4.0 9.0 0.00 0.00 0.00 33 1012.9
20260510003545 57 307 4.0 9.0 0.00 0.00 0.00 32 1012.8
20260510003104 57 275 3.0 8.0 0.00 0.00 0.00 31 1012.7
20260510002543 58 295 2.0 9.0 0.00 0.00 0.00 31 1012.7
20260510002045 57 332 3.0 9.0 0.00 0.00 0.00 31 1012.5
20260510001554 57 337 3.0 9.0 0.00 0.00 0.00 31 1012.6
20260510001045 57 306 2.0 10.0 0.00 0.00 0.00 31 1012.5
20260510000547 58 313 5.0 11.0 0.00 0.00 0.00 30 1012.5
20260510000116 58 352 7.0 11.0 0.00 0.00 0.00 30 1012.4
20260509235545 59 312 3.0 11.0 0.00 0.00 0.00 28 1012.4
20260509235042 59 296 5.0 11.0 0.00 0.00 0.00 28 1012.3
20260509234554 60 328 3.0 10.0 0.00 0.00 0.00 27 1012.4
20260509234042 60 275 6.0 10.0 0.00 0.00 0.00 27 1012.3
20260509233545 60 297 3.0 11.0 0.00 0.00 0.00 27 1012.1
20260509233055 61 5 5.0 11.0 0.00 0.00 0.00 28 1012.0
20260509232542 61 336 3.0 15.0 0.00 0.00 0.00 27 1012.0
20260509232045 61 300 6.0 15.0 0.00 0.00 0.00 29 1011.9
20260509231556 61 351 10.0 15.0 0.00 0.00 0.00 28 1011.8
20260509231044 61 360 6.0 16.0 0.00 0.00 0.00 29 1011.8
20260509230545 61 298 8.0 16.0 0.00 0.00 0.00 29 1011.8
20260509230052 61 313 6.0 14.0 0.00 0.00 0.00 28 1011.8
20260509225546 62 339 4.0 17.0 0.00 0.00 0.00 29 1011.6
20260509225045 62 288 8.0 17.0 0.00 0.00 0.00 28 1011.6
20260509224552 62 269 4.0 11.0 0.00 0.00 0.00 28 1011.3
20260509224045 62 5 5.0 11.0 0.00 0.00 0.00 27 1011.4
20260509223545 61 277 4.0 12.0 0.00 0.00 0.00 26 1011.2
20260509223103 62 272 5.0 13.0 0.00 0.00 0.00 28 1011.1
20260509222546 62 319 7.0 13.0 0.00 0.00 0.00 28 1011.1
20260509222043 62 323 2.0 11.0 0.00 0.00 0.00 27 1011.0
20260509221600 63 22 5.0 11.0 0.00 0.00 0.00 27 1011.0
20260509221045 63 324 6.0 11.0 0.00 0.00 0.00 28 1011.0
20260509220545 62 288 4.0 12.0 0.00 0.00 0.00 26 1010.9
20260509220052 62 293 6.0 12.0 0.00 0.00 0.00 26 1011.0
20260509215544 62 205 4.0 11.0 0.00 0.00 0.00 26 1010.9